Tekamah, NE

8:21 PM CST on November 18, 2017 (GMT -0600)
Tekamah

Weather History for KTQE - January, 2014

Change the Weather History Date:

Friday, January 31, 2014

  Actual Average Record
Temperature  
Mean Temperature 18 °F -  
Max Temperature 25 °F 34 °F 60 °F (2012)
Min Temperature 12 °F 12 °F -16 °F (1950)
Degree Days  
Heating Degree Days 46    
Moisture  
Dew Point 3 °F    
Average Humidity 51    
Maximum Humidity 85    
Minimum Humidity 36    
Precipitation  
Precipitation 0.00 in - - ()
Sea Level Pressure  
Sea Level Pressure 30.10 in    
Wind  
Wind Speed 8 mph (East)    
Max Wind Speed 15 mph    
Max Gust Speed -    
Visibility 9 miles    
Events Snow    
Averages and records for this station are not official NWS values.
T = Trace of Precipitation, MM = Missing Value Source: NWS Daily Summary

Daily Weather History Graph

Daily Weather History Graph

Search for Another Location

Airport or City:

Trip Planner

Search our weather history database for the weather conditions in past years. The results will help you decide how hot, cold, wet, or windy it might be!

Date:

Astronomy

Jan. 31, 2014 Rise Set
Actual Time 7:37 AM CST 5:38 PM CST
Civil Twilight 7:08 AM CST 6:08 PM CST
Nautical Twilight 6:35 AM CST 6:41 PM CST
Astronomical Twilight 6:02 AM CST 7:14 PM CST
Moon 7:46 AM CST (1/31) 7:06 PM CST (1/31)
Length of Visible Light 11h 00m
Length of Day
10h 01m
New Moon, 1% of the Moon is Illuminated
Jan 31
New Moon
Feb 6
First Quarter
Feb 14
Full
Feb 22
Last Quarter
Mar 1
New

Hourly Weather History & Observations

Time (CST) Temp. Windchill Dew Point Humidity Pressure Visibility Wind Dir Wind Speed Gust Speed Precip Events Conditions
12:54 AM 15.1 °F -0.1 °F 3.0 °F 59% 30.13 in 10.0 mi North 15.0 mph - N/A   Mostly Cloudy
1:54 AM 14.0 °F -0.8 °F 1.9 °F 59% 30.13 in 10.0 mi North 13.8 mph - N/A   Overcast
2:54 AM 14.0 °F -0.2 °F 1.0 °F 56% 30.14 in 10.0 mi North 12.7 mph - N/A   Overcast
3:54 AM 12.9 °F -0.2 °F -0.0 °F 56% 30.15 in 10.0 mi North 10.4 mph - N/A   Overcast
4:54 AM 12.9 °F 2.6 °F -0.0 °F 56% 30.15 in 10.0 mi NNE 6.9 mph - N/A   Overcast
5:54 AM 12.9 °F 1.6 °F -2.0 °F 51% 30.17 in 10.0 mi North 8.1 mph - N/A   Overcast
6:54 AM 12.9 °F 1.6 °F -2.0 °F 51% 30.18 in 10.0 mi North 8.1 mph - N/A   Overcast
7:54 AM 12.9 °F 3.8 °F -2.0 °F 51% 30.20 in 10.0 mi North 5.8 mph - N/A   Overcast
8:54 AM 12.9 °F 3.8 °F -2.9 °F 49% 30.21 in 10.0 mi NE 5.8 mph - N/A   Overcast
9:54 AM 15.1 °F 9.4 °F -2.0 °F 47% 30.22 in 10.0 mi Variable 3.5 mph - N/A   Overcast
10:54 AM 16.0 °F 10.4 °F -2.0 °F 45% 30.22 in 10.0 mi ENE 3.5 mph - N/A   Scattered Clouds
11:54 AM 18.0 °F - -0.0 °F 45% 30.20 in 10.0 mi Calm Calm - N/A   Overcast
12:54 PM 19.9 °F - -0.0 °F 42% 30.14 in 10.0 mi Calm Calm - N/A   Mostly Cloudy
1:54 PM 23.0 °F - 1.0 °F 39% 30.10 in 10.0 mi Calm Calm - N/A   Partly Cloudy
2:54 PM 25.0 °F 20.7 °F 1.9 °F 37% 30.07 in 10.0 mi Variable 3.5 mph - N/A   Clear
3:54 PM 25.0 °F 20.7 °F 1.9 °F 37% 30.07 in 10.0 mi Variable 3.5 mph - N/A   Overcast
4:54 PM 25.0 °F 18.1 °F 1.0 °F 36% 30.05 in 10.0 mi ESE 5.8 mph - N/A   Overcast
5:54 PM 25.0 °F 17.1 °F 1.0 °F 36% 30.03 in 10.0 mi ESE 6.9 mph - N/A   Overcast
6:54 PM 25.0 °F 17.1 °F 1.9 °F 37% 30.03 in 10.0 mi ESE 6.9 mph - N/A   Overcast
7:54 PM 24.1 °F 18.2 °F 1.9 °F 38% 30.03 in 10.0 mi SE 4.6 mph - N/A   Overcast
8:54 PM 24.1 °F 19.7 °F 1.9 °F 38% 30.04 in 10.0 mi SSE 3.5 mph - N/A   Overcast
9:54 PM 24.1 °F - 1.9 °F 38% 30.04 in 10.0 mi Calm Calm - N/A   Overcast
10:54 PM 21.9 °F 12.5 °F 10.0 °F 60% 30.04 in 7.0 mi SSE 8.1 mph - 0.00 in Snow Light Snow
11:14 PM 21.0 °F 13.4 °F 14.0 °F 74% 29.99 in 2.0 mi South 5.8 mph - 0.00 in Snow Light Snow
11:35 PM 21.0 °F 12.4 °F 15.1 °F 78% 29.99 in 3.0 mi South 6.9 mph - 0.00 in Snow Light Snow
11:43 PM 19.9 °F 11.1 °F 15.1 °F 81% 29.99 in 2.5 mi South 6.9 mph - 0.00 in Snow Light Snow
11:54 PM 19.9 °F 12.1 °F 16.0 °F 85% 30.02 in 2.5 mi South 5.8 mph - 0.00 in Snow Light Snow